Regional Weather Roundup
Issued by NWS

Home | Current Version | Previous Version | Text Only | Print | Product List | Glossary On
Versions: 1 2 3 4 5 6 7 8 9 10 11 12 13 14 15 16 17 18 19 20 21 22 23 24 25 26 27 28 29 30 31 32 33 34 35 36 37 38 39 40 41 42 43 44 45 46 47 48 49 50
000
ASUS43 KBIS 261210
RWRND
NORTH DAKOTA REGIONAL WEATHER ROUNDUP
NATIONAL WEATHER SERVICE EASTERN NORTH DAKOTA/GRAND FORKS ND
700 AM CDT FRI MAY 26 2017

  NOTE: "FAIR" INDICATES FEW OR NO CLOUDS BELOW 12,000 FEET WITH NO
  SIGNIFICANT WEATHER AND/OR OBSTRUCTIONS TO VISIBILITY.

NDZ001>003-009>011-017-261300-
...NORTHWEST NORTH DAKOTA...

CITY           SKY/WX    TMP DP  RH WIND       PRES   REMARKS
WILLISTON      CLOUDY    51  40  65 W15G23    29.71R
6HR MIN TEMP:  50; 6HR MAX TEMP:  51;

MINOT          FAIR      51  44  77 W15       29.63R
MINOT AFB      FAIR      50  44  80 W16       29.62R
6HR MIN TEMP:  48; 6HR MAX TEMP:  53;

$$

NDZ018>021-031>035-040>046-261300-
...SOUTHWEST NORTH DAKOTA...

CITY           SKY/WX    TMP DP  RH WIND       PRES   REMARKS
BISMARCK       FAIR      50  42  74 W10       29.73R
DICKINSON      CLOUDY    47  37  68 W22       29.74R
GARRISON         N/A     48  42  80 W10       29.68R
HETTINGER      FAIR      43  36  76 W14       29.82R
$$

NDZ004>008-012>016-024-026-027-054-261300-
...NORTHEAST NORTH DAKOTA...

CITY           SKY/WX    TMP DP  RH WIND       PRES   REMARKS
GRAND FORKS    FAIR      53  47  79 W8        29.61R
GRAND FORKS AF FAIR      53  46  77 W9        29.61R
DEVILS LAKE    CLOUDY    51  47  86 W8        29.64
$$

NDZ022-023-025-028>030-036>039-047>053-261300-
...SOUTHEAST NORTH DAKOTA...

CITY           SKY/WX    TMP DP  RH WIND       PRES   REMARKS
JAMESTOWN      FAIR      50  44  80 W12       29.68R
FARGO          FAIR      52  47  83 W9        29.65R
WAHPETON       FAIR      50  45  81 W8        29.68R
$$




USA.gov is the U.S. government's official web portal to all federal, state and local government web resources and services.